QPF
0.00 0.00 0.00 0.04 0.01 0.00 0.00 0.00 0.00 0.00 0.00 0.00 0.00 0.00 0.00 0.00 0.00 0.00 0.00 0.00 0.00 0.00 0.00 0.00 0.00 0.00 0.03 0.02 0.00 0.00 0.00 0.00 0.02 0.03 0.00 0.00 0.00 0.00 0.00 0.00 0.00 0.00 0.00
0.00 0.01 0.00 0.01 0.02 0.01 0.00 0.00 0.00 0.00 0.00 0.00 0.00 0.00 0.00 0.00 0.00 0.00 0.00 0.00 0.00 0.00 0.00 0.00 0.00 0.00 0.00 0.00 0.00 0.00 0.00 0.00 0.00 0.00 0.00 0.00 0.00 0.00 0.00 0.00 0.00 0.00 0.00
0.00 0.00 0.00 0.00 0.00 0.00 0.01 0.00 0.00 0.00 0.00 0.00 0.00 0.00 0.00 0.00 0.00 0.00 0.00 0.00 0.00 0.00 0.00 0.00 0.00 0.00 0.00 0.00 0.00 0.00 0.00 0.00 0.00 0.00 0.00 0.00 0.00 0.00 0.00 0.00 0.00 0.00 0.00
0.00 0.00 0.00 0.00 0.00 0.00 0.00 0.00 0.00 0.00 0.00 0.00 0.00 0.00 0.00 0.00 0.00 0.00 0.00 0.00 0.00 0.00 0.00 0.00 0.00 0.00 0.00 0.00 0.00 0.00 0.00 0.00 0.00 0.00 0.00 0.00 0.00 0.01 0.00 0.00 0.00 0.00 0.00
0.00 0.00 0.00 0.00 0.00 0.00 0.00 0.00 0.00 0.00 0.00 0.00 0.00 0.00 0.00 0.00 0.00 0.00 0.00 0.00 0.00 0.00 0.00 0.00 0.00 0.00 0.00 0.00 0.00 0.00 0.00 0.00 0.00 0.00 0.00 0.00 0.01 0.05 0.00 0.00 0.00 0.00 0.00
0.00 0.00 0.00 0.00 0.00 0.00 0.00 0.00 0.00 0.00 0.00 0.00 0.00 0.00 0.00 0.00 0.00 0.00 0.00 0.00 0.00 0.00 0.00 0.00 0.00 0.00 0.00 0.00 0.00 0.00 0.00 0.00 0.00 0.00 0.00 0.00 0.00 0.00 0.00 0.00 0.00 0.00 0.00
0.00 0.00 0.00 0.00 0.00 0.00 0.00 0.00 0.00 0.00 0.00 0.00 0.00 0.00 0.00 0.00 0.00 0.00 0.01 0.00 0.00 0.00 0.00 0.00 0.00 0.00 0.00 0.00 0.00 0.00 0.00 0.00 0.00 0.00 0.00 0.00 0.01 0.01 0.00 0.00 0.00 0.00 0.00
0.00 0.00 0.00 0.00 0.00 0.00 0.00 0.00 0.00 0.00 0.00 0.00 0.00 0.00 0.00 0.00 0.00 0.00 0.01 0.00 0.00 0.00 0.00 0.00 0.00 0.00 0.00 0.00 0.00 0.00 0.00 0.00 0.00 0.00 0.00 0.00 0.00 0.01 0.00 0.00 0.00 0.00 0.00
0.00 0.00 0.00 0.00 0.00 0.00 0.00 0.00 0.00 0.00 0.00 0.00 0.00 0.00 0.00 0.00 0.00 0.00 0.00 0.00 0.00 0.00 0.00 0.00 0.00 0.00 0.00 0.00 0.00 0.00 0.00 0.00 0.00 0.00 0.00 0.00 0.00 0.00 0.00 0.00 0.00 0.00 0.00
0.00 0.00 0.00 0.00 0.00 0.00 0.00 0.00 0.00 0.00 0.00 0.00 0.00 0.00 0.00 0.00 0.00 0.00 0.00 0.00 0.00 0.01 0.00 0.01 0.00 0.00 0.00 0.00 0.00 0.00 0.00 0.00 0.00 0.00 0.00 0.00 0.00 0.00 0.00 0.00 0.00 0.00 0.00
0.00 0.00 0.00 0.00 0.00 0.00 0.00 0.00 0.00 0.00 0.00 0.00 0.00 0.00 0.00 0.00 0.00 0.00 0.00 0.00 0.00 0.01 0.01 0.02 0.03 0.03 0.02 0.00 0.00 0.00 0.00 0.00 0.00 0.00 0.00 0.00 0.00 0.00 0.00 0.00 0.00 0.00 0.00
0.00 0.00 0.00 0.00 0.00 0.00 0.00 0.00 0.00 0.00 0.00 0.00 0.00 0.00 0.00 0.00 0.00 0.00 0.00 0.00 0.00 0.00 0.00 0.02 0.02 0.02 0.01 0.00 0.00 0.00 0.00 0.00 0.00 0.00 0.00 0.00 0.00 0.00 0.00 0.00 0.00 0.00 0.00
0.00 0.00 0.00 0.00 0.00 0.00 0.00 0.00 0.00 0.00 0.00 0.00 0.00 0.00 0.00 0.00 0.00 0.00 0.00 0.00 0.00 0.00 0.01 0.01 0.01 0.01 0.01 0.00 0.00 0.00 0.00 0.00 0.00 0.00 0.00 0.00 0.00 0.00 0.00 0.00 0.00 0.00 0.00
0.00 0.00 0.00 0.00 0.00 0.00 0.00 0.00 0.00 0.00 0.00 0.00 0.00 0.00 0.00 0.00 0.00 0.00 0.00 0.00 0.00 0.00 0.00 0.01 0.01 0.01 0.02 0.04 0.03 0.02 0.00 0.00 0.00 0.00 0.00 0.00 0.00 0.00 0.00 0.00 0.00 0.00 0.00
0.00 0.00 0.00 0.00 0.00 0.00 0.00 0.00 0.00 0.00 0.00 0.00 0.00 0.00 0.00 0.00 0.00 0.00 0.00 0.00 0.00 0.00 0.00 0.00 0.00 0.00 0.01 0.01 0.03 0.04 0.03 0.03 0.05 0.10 0.05 0.01 0.00 0.00 0.00 0.01 0.01 0.00 0.00
0.00 0.00 0.00 0.00 0.00 0.00 0.00 0.00 0.00 0.00 0.00 0.00 0.00 0.00 0.00 0.00 0.00 0.00 0.00 0.00 0.00 0.00 0.00 0.00 0.00 0.00 0.00 0.00 0.01 0.01 0.02 0.03 0.04 0.08 0.11 0.11 0.09 0.04 0.01 0.01 0.01 0.00 0.00
0.00 0.00 0.00 0.00 0.00 0.00 0.00 0.00 0.00 0.00 0.00 0.00 0.00 0.00 0.00 0.00 0.00 0.00 0.00 0.00 0.00 0.00 0.00 0.00 0.00 0.00 0.00 0.00 0.00 0.00 0.00 0.01 0.01 0.01 0.02 0.02 0.05 0.08 0.07 0.02 0.01 0.01 0.01
0.00 0.00 0.00 0.00 0.00 0.00 0.00 0.00 0.00 0.00 0.00 0.00 0.00 0.00 0.00 0.00 0.00 0.00 0.00 0.00 0.00 0.00 0.00 0.00 0.00 0.00 0.00 0.00 0.00 0.00 0.00 0.00 0.00 0.00 0.00 0.01 0.02 0.04 0.05 0.04 0.03 0.03 0.03
0.00 0.00 0.00 0.00 0.00 0.00 0.00 0.00 0.00 0.00 0.00 0.00 0.00 0.00 0.00 0.00 0.00 0.00 0.00 0.00 0.00 0.00 0.00 0.00 0.00 0.00 0.00 0.00 0.00 0.00 0.00 0.00 0.00 0.00 0.00 0.00 0.00 0.00 0.02 0.04 0.06 0.04 0.03
0.00 0.00 0.00 0.00 0.00 0.00 0.00 0.00 0.00 0.00 0.00 0.00 0.00 0.00 0.00 0.00 0.00 0.00 0.00 0.00 0.00 0.00 0.00 0.00 0.00 0.00 0.00 0.00 0.00 0.00 0.00 0.00 0.00 0.00 0.00 0.00 0.00 0.00 0.00 0.00 0.01 0.02 0.04
0.00 0.00 0.00 0.00 0.00 0.00 0.00 0.00 0.00 0.00 0.00 0.00 0.00 0.00 0.00 0.00 0.00 0.00 0.00 0.00 0.00 0.00 0.00 0.00 0.00 0.00 0.00 0.00 0.00 0.00 0.00 0.00 0.00 0.00 0.00 0.00 0.00 0.00 0.00 0.02 0.03 0.03 0.03
0.00 0.00 0.00 0.00 0.00 0.00 0.00 0.00 0.00 0.00 0.00 0.00 0.00 0.00 0.00 0.00 0.00 0.00 0.00 0.00 0.00 0.00 0.00 0.00 0.00 0.00 0.00 0.00 0.00 0.00 0.00 0.00 0.00 0.00 0.00 0.00 0.00 0.00 0.00 0.01 0.02 0.02 0.04
0.00 0.00 0.00 0.00 0.00 0.00 0.00 0.00 0.00 0.00 0.00 0.00 0.00 0.00 0.00 0.00 0.00 0.00 0.00 0.00 0.00 0.00 0.00 0.00 0.00 0.00 0.00 0.00 0.00 0.01 0.01 0.01 0.00 0.00 0.00 0.00 0.00 0.00 0.00 0.00 0.00 0.00 0.00
0.00 0.00 0.00 0.00 0.00 0.00 0.00 0.00 0.00 0.00 0.00 0.00 0.00 0.00 0.00 0.00 0.00 0.00 0.00 0.00 0.00 0.00 0.00 0.00 0.00 0.00 0.00 0.00 0.00 0.00 0.00 0.00 0.01 0.00 0.00 0.00 0.00 0.00 0.00 0.00 0.00 0.00 0.00
0.00 0.00 0.00 0.00 0.00 0.00 0.00 0.00 0.00 0.00 0.00 0.00 0.00 0.00 0.00 0.00 0.00 0.00 0.00 0.00 0.00 0.00 0.00 0.00 0.00 0.00 0.00 0.00 0.00 0.00 0.00 0.00 0.00 0.00 0.00 0.00 0.00 0.00 0.00 0.00 0.00 0.00 0.00
0.00 0.00 0.00 0.00 0.00 0.00 0.00 0.00 0.00 0.00 0.00 0.00 0.00 0.00 0.00 0.00 0.00 0.00 0.00 0.00 0.00 0.00 0.00 0.00 0.00 0.00 0.00 0.00 0.00 0.00 0.00 0.00 0.00 0.00 0.00 0.00 0.00 0.00 0.00 0.00 0.00 0.00 0.00
MSLP
1017.21 1017.14 1017.03 1017.00 1017.17 1017.34 1017.40 1017.47 1017.58 1017.66 1017.72 1017.68 1017.67 1017.69 1017.74 1017.77 1017.76 1017.82 1017.86 1017.85 1017.81 1017.74 1017.70 1017.64 1017.59 1017.50 1017.46 1017.48 1017.52 1017.60 1017.57 1017.52 1017.42 1017.44 1017.44 1017.50 1017.59 1017.68 1017.74 1017.61 1017.49 1017.55 1017.54
1017.20 1017.18 1017.20 1017.25 1017.32 1017.46 1017.59 1017.61 1017.72 1017.80 1017.82 1017.79 1017.72 1017.73 1017.75 1017.78 1017.84 1017.86 1017.89 1017.89 1017.86 1017.77 1017.71 1017.68 1017.64 1017.62 1017.58 1017.61 1017.68 1017.72 1017.72 1017.74 1017.73 1017.67 1017.64 1017.64 1017.60 1017.57 1017.72 1017.85 1017.76 1017.68 1017.70
1017.33 1017.41 1017.25 1017.37 1017.53 1017.61 1017.70 1017.72 1017.80 1017.87 1017.89 1017.89 1017.79 1017.75 1017.76 1017.79 1017.83 1017.86 1017.90 1017.86 1017.82 1017.79 1017.73 1017.67 1017.68 1017.73 1017.72 1017.74 1017.73 1017.77 1017.83 1017.84 1017.85 1017.85 1017.82 1017.87 1017.88 1017.78 1017.70 1017.76 1017.83 1017.83 1017.82
1017.77 1017.95 1017.76 1017.62 1017.63 1017.73 1017.77 1017.82 1017.85 1017.87 1017.89 1017.93 1017.87 1017.81 1017.80 1017.77 1017.76 1017.79 1017.84 1017.86 1017.85 1017.82 1017.77 1017.71 1017.72 1017.82 1017.85 1017.88 1017.88 1017.82 1017.81 1017.84 1017.83 1017.83 1017.92 1017.95 1017.89 1017.74 1017.73 1017.73 1017.83 1017.85 1017.87
1018.25 1018.32 1018.11 1017.97 1017.95 1017.97 1017.95 1017.97 1017.92 1017.87 1017.83 1017.87 1017.91 1017.88 1017.85 1017.78 1017.74 1017.72 1017.75 1017.82 1017.85 1017.86 1017.85 1017.81 1017.79 1017.81 1017.85 1017.85 1017.88 1017.87 1017.81 1017.81 1017.77 1017.70 1017.76 1017.80 1017.53 1017.53 1017.63 1017.68 1017.73 1017.85 1017.94
1018.56 1018.48 1018.37 1018.29 1018.26 1018.27 1018.27 1018.22 1018.18 1018.11 1017.97 1017.88 1017.80 1017.77 1017.79 1017.72 1017.67 1017.62 1017.61 1017.64 1017.68 1017.72 1017.75 1017.73 1017.70 1017.71 1017.75 1017.77 1017.77 1017.79 1017.79 1017.74 1017.73 1017.68 1017.63 1017.58 1017.35 1017.18 1017.37 1017.57 1017.66 1017.78 1017.86
1018.75 1018.65 1018.54 1018.48 1018.45 1018.46 1018.43 1018.45 1018.42 1018.31 1018.24 1018.16 1018.01 1017.81 1017.71 1017.63 1017.57 1017.53 1017.49 1017.47 1017.44 1017.43 1017.46 1017.48 1017.49 1017.52 1017.54 1017.59 1017.63 1017.63 1017.63 1017.64 1017.72 1017.70 1017.58 1017.53 1017.31 1017.07 1017.23 1017.41 1017.60 1017.75 1017.82
1018.86 1018.86 1018.89 1018.78 1018.75 1018.76 1018.66 1018.56 1018.49 1018.42 1018.31 1018.18 1018.14 1017.98 1017.81 1017.68 1017.54 1017.41 1017.28 1017.23 1017.18 1017.17 1017.16 1017.16 1017.15 1017.13 1017.18 1017.29 1017.35 1017.37 1017.42 1017.53 1017.54 1017.57 1017.43 1017.41 1017.09 1016.83 1016.95 1017.16 1017.37 1017.55 1017.66
1019.17 1019.22 1019.29 1019.23 1019.17 1019.09 1018.91 1018.72 1018.54 1018.43 1018.31 1018.19 1018.06 1017.91 1017.83 1017.71 1017.53 1017.31 1017.11 1016.98 1016.89 1016.84 1016.82 1016.82 1016.85 1016.82 1016.82 1016.88 1016.95 1017.04 1017.14 1017.20 1017.33 1017.37 1017.22 1017.13 1017.04 1016.62 1016.59 1016.83 1017.05 1017.29 1017.48
1019.52 1019.65 1019.64 1019.53 1019.44 1019.28 1019.11 1018.97 1018.67 1018.55 1018.30 1018.13 1017.98 1017.85 1017.75 1017.63 1017.42 1017.17 1016.93 1016.86 1016.72 1016.65 1016.59 1016.56 1016.52 1016.47 1016.52 1016.58 1016.64 1016.66 1016.76 1016.85 1016.97 1017.06 1016.97 1016.75 1016.66 1016.54 1016.38 1016.55 1016.71 1016.90 1017.14
1019.94 1020.05 1019.95 1019.91 1019.73 1019.54 1019.20 1019.15 1018.98 1018.78 1018.52 1018.36 1018.23 1018.08 1017.91 1017.82 1017.61 1017.29 1016.99 1016.70 1016.59 1016.45 1016.30 1016.22 1016.17 1016.17 1016.15 1016.23 1016.27 1016.35 1016.44 1016.53 1016.60 1016.64 1016.59 1016.37 1016.18 1016.08 1015.94 1016.11 1016.28 1016.45 1016.69
1020.20 1020.19 1020.18 1020.15 1020.04 1019.83 1019.47 1019.51 1019.36 1019.07 1018.82 1018.67 1018.54 1018.36 1018.15 1017.94 1017.76 1017.47 1017.19 1016.89 1016.50 1016.14 1015.93 1015.80 1015.64 1015.65 1015.77 1015.87 1015.90 1015.94 1016.05 1016.08 1016.15 1016.12 1016.01 1015.81 1015.67 1015.61 1015.52 1015.62 1015.74 1015.91 1016.13
1020.22 1020.24 1020.26 1020.24 1020.18 1020.10 1019.90 1019.73 1019.65 1019.45 1019.20 1018.96 1018.77 1018.53 1018.34 1018.18 1017.98 1017.74 1017.55 1017.33 1016.97 1016.46 1016.03 1015.56 1015.48 1015.41 1015.40 1015.46 1015.46 1015.43 1015.40 1015.51 1015.44 1015.39 1015.22 1015.12 1015.11 1015.01 1014.98 1015.10 1015.28 1015.42 1015.60
1020.14 1020.25 1020.29 1020.26 1020.27 1020.20 1020.03 1019.93 1019.77 1019.64 1019.41 1019.25 1018.95 1018.63 1018.53 1018.44 1018.28 1018.07 1017.79 1017.54 1017.19 1016.87 1016.56 1016.04 1015.61 1015.23 1015.09 1015.02 1015.06 1015.04 1014.97 1014.90 1014.85 1014.70 1014.60 1014.53 1014.47 1014.41 1014.42 1014.55 1014.71 1014.91 1015.06
1020.22 1020.35 1020.41 1020.35 1020.38 1020.23 1020.08 1020.04 1019.86 1019.78 1019.57 1019.40 1019.05 1018.74 1018.53 1018.58 1018.46 1018.18 1017.92 1017.61 1017.30 1016.94 1016.72 1016.43 1015.97 1015.44 1015.02 1014.74 1014.65 1014.71 1014.68 1014.44 1014.36 1014.22 1014.13 1013.93 1013.90 1013.88 1013.87 1013.92 1014.07 1014.21 1014.37
1020.22 1020.36 1020.36 1020.33 1020.27 1020.18 1020.16 1020.10 1019.99 1019.83 1019.48 1019.23 1019.07 1018.76 1018.43 1018.42 1018.35 1018.09 1017.90 1017.61 1017.29 1016.91 1016.54 1016.33 1016.15 1015.84 1015.25 1014.75 1014.51 1014.19 1014.12 1014.16 1014.15 1014.09 1013.99 1013.77 1013.61 1013.59 1013.49 1013.58 1013.64 1013.65 1013.65
1020.15 1020.27 1020.33 1020.33 1020.17 1020.22 1020.25 1020.19 1020.11 1019.93 1019.49 1019.37 1019.26 1018.94 1018.62 1018.42 1018.30 1018.06 1017.84 1017.59 1017.20 1016.77 1016.46 1016.12 1015.78 1015.53 1015.35 1014.88 1014.54 1014.23 1013.89 1013.74 1013.69 1013.59 1013.51 1013.39 1013.33 1013.20 1013.19 1013.14 1013.12 1013.05 1013.04
1020.13 1020.27 1020.26 1020.24 1020.24 1020.22 1020.30 1020.32 1020.28 1020.15 1019.92 1019.78 1019.49 1019.24 1019.00 1018.83 1018.62 1018.21 1017.89 1017.64 1017.14 1016.70 1016.37 1016.15 1015.86 1015.55 1015.32 1015.07 1014.75 1014.29 1013.98 1013.71 1013.46 1013.29 1013.19 1013.14 1013.04 1012.91 1012.75 1012.72 1012.63 1012.61 1012.62
1020.11 1020.28 1020.26 1020.24 1020.31 1020.37 1020.32 1020.30 1020.29 1020.12 1020.11 1020.05 1019.75 1019.54 1019.41 1019.21 1018.97 1018.68 1018.36 1017.99 1017.42 1016.95 1016.58 1016.35 1015.89 1015.62 1015.32 1014.92 1014.54 1014.15 1013.94 1013.76 1013.56 1013.20 1013.17 1012.95 1012.78 1012.64 1012.48 1012.34 1012.24 1012.13 1012.09
1019.88 1020.12 1020.24 1020.35 1020.43 1020.43 1020.45 1020.44 1020.39 1020.35 1020.18 1020.05 1019.92 1019.80 1019.64 1019.49 1019.24 1019.03 1018.74 1018.43 1018.06 1017.60 1017.12 1016.71 1016.33 1015.72 1015.37 1015.10 1014.47 1014.12 1013.86 1013.54 1013.32 1013.15 1013.00 1012.69 1012.54 1012.36 1012.10 1011.91 1011.77 1011.78 1011.77
1019.71 1020.04 1020.27 1020.42 1020.54 1020.57 1020.60 1020.67 1020.67 1020.77 1020.42 1020.21 1020.01 1019.90 1019.69 1019.57 1019.31 1019.17 1019.05 1018.73 1018.45 1018.20 1017.86 1017.48 1016.95 1016.30 1015.53 1015.42 1014.89 1014.35 1013.72 1013.20 1012.92 1012.87 1012.97 1012.80 1012.65 1012.51 1012.05 1011.83 1011.61 1011.51 1011.41
1019.71 1020.01 1020.19 1020.34 1020.43 1020.51 1020.58 1020.63 1020.71 1020.64 1020.47 1020.33 1020.09 1019.91 1019.74 1019.63 1019.52 1019.26 1019.15 1018.85 1018.56 1018.38 1018.06 1017.87 1017.49 1017.05 1016.51 1016.30 1015.93 1015.23 1014.40 1013.62 1013.37 1013.02 1012.94 1012.99 1012.93 1012.59 1012.35 1012.06 1011.66 1011.57 1011.45
1019.78 1020.01 1020.15 1020.28 1020.37 1020.46 1020.57 1020.64 1020.66 1020.58 1020.54 1020.55 1020.32 1020.17 1019.91 1019.58 1019.71 1019.62 1019.45 1019.05 1018.83 1018.73 1018.58 1018.46 1018.20 1017.83 1017.34 1016.80 1016.42 1016.14 1015.26 1014.64 1014.37 1013.14 1013.11 1013.31 1013.28 1013.07 1013.02 1012.71 1012.38 1012.34 1012.30
1019.65 1019.88 1020.01 1020.17 1020.27 1020.40 1020.56 1020.73 1020.84 1020.88 1020.90 1020.68 1020.51 1020.34 1020.08 1019.68 1019.76 1019.88 1019.81 1019.55 1019.08 1018.99 1018.93 1018.80 1018.50 1018.16 1017.74 1017.15 1016.59 1016.26 1016.27 1016.18 1015.47 1014.55 1013.75 1013.64 1013.60 1013.42 1013.17 1012.95 1013.18 1013.13 1013.07
1019.43 1019.76 1019.86 1020.09 1020.23 1020.34 1020.49 1020.56 1020.71 1020.87 1020.76 1020.62 1020.58 1020.48 1020.30 1020.05 1019.95 1019.92 1019.81 1019.68 1019.46 1019.12 1019.14 1018.95 1018.68 1018.36 1018.06 1017.67 1017.28 1016.95 1016.55 1016.21 1015.98 1015.97 1015.09 1014.51 1014.03 1013.75 1013.51 1013.61 1013.81 1013.72 1013.78
1019.30 1019.56 1019.68 1019.92 1020.01 1020.12 1020.20 1020.28 1020.45 1020.64 1020.69 1020.70 1020.63 1020.66 1020.58 1020.37 1020.26 1020.07 1019.85 1019.84 1019.75 1019.61 1019.49 1019.24 1018.96 1018.72 1018.43 1018.10 1017.94 1017.70 1017.44 1017.08 1016.83 1016.74 1016.12 1015.65 1015.17 1014.41 1014.31 1014.56 1014.64 1014.65 1014.63
Thickness
5748 5749 5749 5750 5750 5749 5749 5749 5748 5748 5747 5747 5746 5746 5745 5744 5744 5743 5742 5742 5742 5742 5742 5741 5741 5742 5741 5741 5740 5739 5739 5738 5739 5738 5738 5737 5736 5735 5735 5736 5736 5735 5735
5747 5748 5748 5748 5748 5747 5746 5747 5746 5746 5746 5745 5745 5745 5744 5742 5741 5740 5740 5739 5739 5740 5740 5740 5739 5739 5739 5738 5737 5736 5736 5735 5735 5735 5735 5735 5735 5734 5733 5732 5733 5734 5733
5746 5745 5747 5746 5745 5745 5745 5745 5744 5744 5744 5743 5744 5743 5742 5741 5740 5739 5737 5737 5737 5737 5737 5737 5736 5736 5735 5735 5734 5733 5732 5732 5732 5732 5731 5731 5731 5731 5731 5731 5730 5730 5730
5741 5741 5742 5744 5744 5743 5743 5743 5743 5743 5742 5741 5741 5741 5740 5740 5739 5738 5736 5735 5734 5734 5733 5733 5733 5732 5731 5731 5730 5731 5730 5729 5729 5729 5728 5727 5728 5728 5728 5728 5727 5727 5727
5736 5736 5738 5740 5741 5740 5741 5741 5741 5741 5741 5739 5739 5738 5738 5737 5737 5737 5735 5734 5732 5731 5730 5730 5729 5728 5727 5727 5726 5726 5726 5726 5727 5727 5727 5725 5727 5726 5725 5725 5725 5724 5723
5734 5735 5735 5736 5737 5737 5737 5737 5737 5738 5738 5737 5737 5736 5735 5735 5734 5734 5734 5733 5731 5730 5728 5727 5726 5725 5724 5724 5723 5722 5721 5722 5722 5723 5724 5723 5724 5725 5723 5722 5722 5721 5720
5732 5732 5733 5734 5734 5735 5735 5734 5734 5734 5733 5733 5733 5733 5733 5732 5732 5731 5731 5730 5729 5728 5727 5725 5724 5723 5722 5721 5720 5719 5718 5718 5717 5718 5719 5718 5720 5721 5719 5718 5717 5716 5716
5729 5729 5729 5730 5730 5730 5731 5731 5731 5730 5730 5730 5729 5729 5728 5728 5727 5727 5727 5727 5726 5725 5724 5723 5722 5721 5720 5718 5718 5717 5715 5714 5713 5714 5715 5714 5714 5717 5716 5714 5713 5712 5711
5724 5725 5725 5725 5725 5724 5725 5726 5727 5726 5726 5725 5725 5725 5724 5724 5723 5723 5723 5723 5722 5721 5721 5720 5719 5718 5717 5716 5714 5713 5712 5711 5710 5710 5710 5711 5710 5712 5712 5711 5709 5707 5705
5720 5720 5720 5720 5720 5720 5720 5720 5721 5720 5720 5720 5720 5719 5718 5718 5718 5718 5718 5717 5717 5716 5716 5715 5715 5714 5713 5713 5711 5710 5709 5708 5706 5706 5706 5707 5707 5707 5708 5706 5705 5703 5701
5714 5714 5714 5714 5715 5715 5715 5713 5713 5712 5712 5712 5711 5711 5710 5710 5710 5711 5711 5712 5712 5711 5711 5711 5710 5709 5709 5708 5707 5705 5705 5704 5703 5703 5703 5703 5704 5704 5704 5703 5702 5700 5698
5707 5708 5708 5707 5707 5707 5706 5705 5704 5704 5704 5704 5703 5703 5703 5703 5703 5704 5705 5706 5707 5708 5708 5708 5708 5707 5705 5704 5703 5702 5700 5700 5700 5699 5699 5700 5700 5700 5701 5700 5699 5697 5695
5703 5702 5702 5701 5699 5698 5698 5698 5697 5696 5697 5697 5697 5697 5697 5697 5697 5698 5698 5698 5700 5701 5703 5705 5704 5704 5703 5702 5701 5700 5699 5697 5697 5697 5697 5697 5696 5696 5695 5696 5694 5693 5692
5699 5697 5696 5694 5693 5691 5691 5691 5691 5691 5691 5691 5691 5692 5691 5691 5690 5689 5690 5691 5692 5693 5694 5696 5697 5699 5698 5698 5697 5696 5695 5694 5694 5694 5694 5694 5694 5693 5692 5690 5690 5688 5687
5692 5690 5688 5687 5686 5685 5686 5686 5686 5686 5686 5685 5686 5686 5685 5683 5682 5682 5682 5682 5683 5684 5685 5686 5687 5690 5692 5692 5691 5690 5689 5691 5689 5689 5689 5689 5689 5689 5689 5687 5686 5685 5683
5687 5685 5683 5682 5681 5681 5680 5680 5680 5680 5681 5681 5680 5680 5680 5678 5677 5675 5675 5675 5675 5675 5676 5676 5677 5677 5679 5681 5683 5682 5682 5682 5682 5682 5681 5681 5682 5681 5681 5680 5678 5679 5680
5682 5680 5678 5677 5677 5676 5674 5673 5673 5672 5673 5673 5671 5670 5670 5669 5669 5668 5667 5666 5667 5667 5667 5667 5667 5668 5669 5670 5670 5671 5671 5672 5671 5672 5673 5674 5673 5673 5673 5672 5672 5672 5672
5677 5674 5673 5671 5671 5670 5667 5666 5664 5664 5663 5662 5661 5660 5659 5657 5655 5656 5656 5655 5655 5656 5656 5656 5655 5655 5655 5654 5655 5658 5658 5658 5659 5660 5661 5661 5661 5662 5663 5664 5663 5664 5664
5670 5667 5666 5665 5663 5662 5659 5658 5656 5656 5653 5651 5649 5648 5645 5644 5643 5642 5641 5640 5640 5642 5642 5641 5642 5641 5641 5641 5643 5645 5644 5644 5644 5645 5646 5647 5647 5648 5651 5653 5654 5654 5654
5666 5662 5660 5658 5656 5653 5651 5648 5647 5644 5643 5640 5638 5636 5633 5631 5629 5628 5627 5626 5626 5627 5627 5627 5627 5628 5627 5628 5631 5632 5631 5633 5633 5632 5633 5632 5633 5635 5639 5641 5642 5643 5643
5662 5657 5653 5650 5646 5643 5641 5638 5634 5631 5631 5630 5627 5624 5622 5619 5618 5618 5617 5616 5614 5613 5612 5611 5610 5612 5612 5612 5615 5618 5622 5625 5626 5624 5622 5621 5620 5621 5625 5625 5627 5628 5630
5654 5650 5646 5643 5639 5636 5632 5629 5625 5622 5620 5618 5616 5614 5613 5611 5610 5610 5608 5608 5605 5603 5601 5598 5597 5594 5591 5589 5593 5598 5605 5610 5612 5612 5611 5609 5608 5608 5609 5608 5611 5614 5617
5645 5641 5638 5635 5631 5627 5623 5619 5616 5614 5611 5608 5607 5606 5605 5605 5602 5600 5598 5596 5594 5590 5587 5583 5581 5576 5572 5572 5576 5581 5591 5596 5593 5599 5597 5594 5593 5594 5592 5592 5593 5593 5596
5637 5634 5630 5627 5623 5619 5615 5610 5606 5602 5600 5600 5599 5598 5599 5598 5595 5591 5587 5585 5583 5579 5576 5572 5568 5565 5563 5564 5567 5570 5570 5570 5575 5579 5582 5581 5579 5579 5579 5578 5577 5576 5577
5630 5625 5622 5618 5614 5610 5606 5603 5599 5597 5595 5594 5593 5592 5591 5590 5586 5582 5579 5576 5573 5571 5567 5564 5560 5558 5555 5555 5555 5556 5558 5561 5561 5560 5567 5568 5567 5565 5564 5564 5560 5560 5560
5620 5617 5615 5611 5608 5604 5601 5599 5595 5592 5590 5588 5586 5584 5581 5580 5576 5574 5571 5568 5564 5561 5557 5555 5552 5549 5547 5546 5545 5544 5544 5544 5544 5544 5550 5552 5552 5551 5550 5546 5544 5542 5541